Wind_Speed
23 22 22 21 21 20 20 19 19 19 19 18 17 17 16 16 15 14 14 14 15 15 14 13 13 12 11 10 10 9 9 9 9 9 8 8 8 8 8 8 8 7
25 24 22 21 21 20 20 20 19 19 19 19 18 16 15 15 15 15 15 14 15 15 15 14 13 13 12 11 11 10 9 9 10 9 9 9 9 8 8 9 9 9
26 25 24 23 22 22 21 20 20 19 19 19 18 16 15 15 15 15 15 15 14 14 15 15 14 14 13 12 12 11 10 10 10 10 10 10 10 9 9 9 9 9
27 26 26 25 23 22 21 20 20 20 19 18 18 18 16 15 15 15 15 15 14 14 14 15 14 14 13 13 13 12 11 10 10 9 10 10 10 10 9 9 9 9
29 27 26 26 23 21 21 21 21 20 20 20 19 18 17 16 16 15 15 15 15 14 14 14 15 14 14 14 14 13 12 11 10 10 10 10 10 11 10 10 10 10
29 28 27 26 24 22 21 21 22 21 20 20 19 18 18 18 17 16 15 15 15 15 15 15 15 15 14 14 14 14 13 12 11 11 11 11 11 11 11 10 11 11
29 30 28 26 24 24 23 22 22 22 21 20 19 18 18 18 18 18 17 16 15 15 15 15 15 15 15 14 14 14 14 13 12 12 12 12 12 12 12 12 11 12
29 29 28 27 25 25 24 23 22 22 21 20 19 19 19 18 18 18 18 17 17 16 16 15 15 15 15 15 15 15 15 14 13 13 14 13 13 13 13 13 13 13
29 28 28 28 27 26 26 25 23 23 22 21 20 19 19 19 19 18 18 18 18 17 17 16 16 16 16 15 15 15 16 15 14 14 14 14 14 14 14 14 14 14
29 29 28 28 28 27 27 26 24 23 23 23 22 21 19 19 19 19 18 18 18 18 18 18 17 17 16 16 16 16 16 16 15 15 15 15 15 15 14 14 14 14
30 30 29 30 29 28 27 27 25 24 23 23 23 22 21 20 20 20 19 19 19 19 19 19 18 18 17 17 16 16 16 16 16 15 16 16 15 15 15 15 15 15
31 30 30 30 30 29 27 27 26 25 24 23 23 23 23 21 20 20 21 21 21 20 20 20 19 19 18 18 17 16 16 16 16 16 16 16 16 16 16 16 16 16
32 31 31 30 29 28 27 26 26 26 25 23 23 23 24 23 22 21 22 22 22 21 20 20 19 19 19 18 18 17 17 16 16 16 16 16 16 16 17 17 17 16
33 31 30 30 28 27 27 26 26 26 25 23 22 23 24 23 23 22 22 22 22 21 21 20 19 19 19 19 19 18 18 17 17 17 17 16 16 17 17 17 17 17
31 30 29 29 28 27 27 26 26 26 25 24 23 23 23 23 23 22 21 21 21 21 21 20 20 20 20 20 20 19 19 19 18 18 18 17 17 16 17 17 17 17
30 29 28 28 28 28 28 27 26 25 25 25 24 23 22 22 22 22 22 21 21 21 21 21 21 21 22 24 23 21 20 19 19 19 18 18 17 17 17 17 18 18
30 29 29 29 29 28 28 27 26 25 25 25 24 23 23 22 22 23 22 21 21 21 21 21 21 22 24 27 27 26 22 19 18 19 18 18 17 17 18 18 18 18
30 29 29 29 29 28 28 28 26 25 25 25 25 24 23 22 22 23 23 22 21 21 21 22 22 23 26 28 29 29 27 23 19 18 18 18 17 18 18 18 17 17
30 29 29 29 29 29 28 27 27 26 26 25 25 23 23 22 23 22 22 22 22 21 21 21 21 22 26 29 29 29 29 27 23 19 18 18 17 18 18 18 17 17
29 29 29 28 28 28 27 28 28 28 26 25 24 23 23 23 23 22 22 23 23 22 22 21 21 22 25 28 29 29 28 29 26 22 19 19 18 18 18 18 17 17
30 29 28 27 28 28 28 28 28 27 26 25 23 23 23 23 23 23 23 23 23 23 22 22 22 23 24 26 28 28 27 27 27 24 21 20 19 20 19 19 18 18
30 29 28 27 27 28 28 28 27 27 26 25 24 23 22 22 22 22 23 23 23 23 23 23 22 23 26 27 27 27 25 26 27 25 23 22 21 20 21 20 19 19
30 29 29 28 27 28 28 27 27 26 26 25 24 23 22 22 22 22 22 23 24 24 24 23 23 24 26 28 28 27 26 26 26 24 23 23 22 21 21 20 20 21
29 29 28 28 27 28 28 27 26 25 25 25 25 24 23 22 22 21 22 23 24 25 25 24 23 23 26 29 29 29 28 28 26 23 22 22 21 21 21 21 22 23
28 28 28 27 27 27 26 26 25 24 24 24 24 24 23 23 22 21 21 22 23 24 25 25 24 23 25 29 30 30 31 30 26 22 22 22 21 20 20 20 21 22
27 28 28 28 27 26 25 24 24 23 23 24 23 23 22 22 22 22 21 21 21 22 23 25 24 23 25 28 30 31 32 32 28 23 21 21 20 19 19 19 19 19
Wind_Direction
204 204 203 204 206 207 205 204 204 205 205 208 210 212 212 210 209 208 207 207 209 212 215 219 223 225 221 219 219 220 222 222 224 224 222 223 222 222 224 224 222 223
206 207 205 205 205 205 205 204 204 205 205 208 210 210 208 205 204 206 208 210 212 214 216 218 222 225 222 219 219 219 219 220 223 224 223 225 225 224 225 225 225 223
205 208 208 207 205 203 204 204 204 205 206 208 208 207 205 203 203 205 207 211 215 216 217 218 219 223 224 221 219 220 220 218 220 223 223 225 227 229 227 225 227 224
203 205 208 209 206 203 203 203 203 205 207 207 207 206 205 204 203 204 205 208 212 214 216 218 219 221 222 221 219 221 222 220 219 220 223 226 226 228 230 228 229 227
200 202 206 208 207 203 202 203 204 205 206 207 206 204 203 202 202 203 205 206 210 213 216 218 220 220 220 220 219 220 221 221 218 216 222 227 226 226 228 229 230 229
198 200 203 205 204 203 203 205 206 206 207 207 205 203 202 202 204 205 205 206 209 213 216 218 220 221 221 219 220 220 221 222 217 214 220 226 229 229 228 228 230 231
196 198 200 202 202 203 204 206 206 207 207 206 204 203 202 203 205 206 207 207 210 213 215 217 218 219 220 219 220 220 220 221 218 214 219 225 228 230 230 229 229 230
195 196 198 199 201 203 205 206 206 205 205 205 204 204 203 204 206 207 207 208 210 212 213 214 215 217 219 220 221 221 219 220 219 215 217 222 225 227 228 229 229 230
194 195 196 197 200 203 205 205 205 205 204 204 205 205 204 205 207 207 206 207 209 211 210 212 213 215 219 220 220 220 220 222 221 217 217 219 222 224 225 227 229 230
193 195 196 197 200 203 205 205 206 205 203 203 206 206 205 205 207 207 206 206 208 209 209 210 212 214 217 218 218 219 220 223 223 221 221 222 223 225 226 227 229 232
193 194 196 197 200 203 205 205 206 205 203 203 205 206 206 205 204 205 205 206 207 208 209 210 212 214 216 216 217 218 219 223 225 224 225 227 228 229 229 230 232 234
193 195 197 198 200 203 204 205 206 206 204 203 204 205 205 204 202 202 204 206 208 208 209 211 213 214 215 216 217 217 219 222 225 225 227 229 230 231 231 232 234 236
193 195 197 199 200 202 202 203 204 205 205 204 203 203 204 203 202 202 203 206 208 209 210 211 213 214 214 216 217 217 218 222 225 227 229 230 232 233 233 234 235 236
193 193 195 197 198 199 200 200 201 203 204 203 202 202 204 204 203 202 203 205 208 209 211 212 212 214 214 214 215 216 217 220 224 228 230 231 232 234 235 236 238 239
191 190 191 193 194 195 197 198 199 199 200 201 200 202 204 205 206 205 204 206 207 208 210 212 213 214 214 213 213 214 216 220 224 227 231 232 233 234 236 237 239 241
187 187 187 189 190 192 194 195 196 196 197 198 199 201 203 204 206 207 207 206 207 208 208 210 213 215 216 216 215 213 214 218 223 226 229 231 231 234 237 238 240 242
183 183 184 186 188 190 190 192 193 194 195 196 197 200 202 203 205 207 209 209 209 209 210 211 214 215 217 220 222 221 217 215 220 225 227 228 229 232 236 238 240 241
181 181 182 184 186 188 188 190 191 192 194 195 197 200 200 202 205 207 209 211 212 212 213 214 216 216 219 223 227 228 225 220 219 225 227 227 229 231 234 237 239 239
179 181 183 183 185 186 187 189 191 193 195 196 199 201 201 203 207 208 209 212 214 216 216 218 219 218 220 226 230 232 231 227 223 226 229 229 230 231 233 235 236 236
179 181 184 184 184 185 186 189 192 195 197 199 200 201 203 205 207 208 210 212 214 216 219 220 222 221 223 228 231 233 234 231 228 229 233 234 232 233 234 234 234 234
181 183 184 184 185 186 188 191 194 196 198 200 202 204 205 206 208 209 210 212 214 217 219 222 225 224 225 229 233 234 235 234 232 232 235 237 235 235 235 235 234 234
184 184 184 185 186 188 191 194 196 197 198 199 202 206 206 206 208 210 210 212 214 216 219 223 226 225 225 228 232 233 232 232 232 231 234 236 236 235 235 236 235 234
186 185 185 186 187 191 195 197 197 197 198 198 202 206 207 206 208 210 212 213 214 215 217 222 225 225 226 228 230 230 228 228 228 228 231 234 235 236 236 235 236 233
186 186 186 187 190 194 197 198 197 198 198 198 202 205 208 208 208 211 213 214 215 215 216 220 224 225 226 228 230 229 227 225 223 224 228 232 233 235 235 235 237 235
185 186 187 189 193 196 198 198 198 199 199 200 203 206 209 210 210 212 214 214 216 218 217 219 224 227 227 229 230 230 228 225 220 221 225 228 230 233 234 234 236 238
183 186 188 190 193 195 197 198 198 200 201 202 204 207 208 210 211 212 214 215 216 218 218 219 223 226 228 229 230 231 231 226 220 219 222 224 227 231 233 233 235 236
Height
820 822 824 826 828 830 832 834 836 838 840 842 843 845 847 849 851 853 854 856 857 858 860 861 862 863 864 865 866 866 867 868 869 869 870 870 871 871 872 872 873 874
817 819 821 824 825 827 829 831 833 835 837 839 841 843 845 847 849 850 852 854 855 856 858 859 860 861 862 863 864 865 866 867 867 868 869 869 870 870 871 871 872 872
813 816 818 821 822 824 826 828 830 832 834 836 838 840 842 844 846 848 850 852 853 855 856 857 858 859 861 862 863 864 864 865 866 867 867 868 869 869 870 870 870 871
809 813 815 817 819 821 824 826 827 829 831 833 835 838 840 842 844 846 847 849 851 853 854 855 856 858 859 860 861 862 863 864 864 865 866 866 867 868 868 869 869 869
806 809 812 814 816 819 821 823 825 826 828 830 832 835 837 839 841 843 845 846 848 850 852 853 854 856 857 858 859 860 861 862 863 864 864 865 866 866 867 867 867 868
802 805 808 811 813 816 818 820 822 823 825 828 830 832 834 836 838 840 842 844 846 848 849 851 852 853 855 856 857 858 859 860 861 862 863 863 864 864 865 866 866 867
797 800 804 807 810 813 815 817 819 821 823 825 827 829 831 833 835 837 840 841 843 845 847 848 850 851 853 854 855 856 857 858 859 860 861 862 862 863 863 864 864 865
793 796 800 803 806 809 811 813 816 818 820 822 824 827 828 830 833 834 837 839 841 843 844 846 847 849 850 851 852 854 855 856 857 858 859 860 860 861 861 862 862 863
789 793 796 799 802 805 807 810 812 814 817 819 821 824 825 828 830 832 834 836 838 840 841 843 845 846 847 849 850 851 852 853 854 855 856 857 858 859 859 860 860 861
785 788 792 795 798 801 803 806 809 811 814 816 818 821 822 824 827 829 831 833 835 837 838 840 841 843 844 846 847 848 850 851 852 853 854 854 855 856 857 858 858 858
780 784 787 790 793 796 799 802 805 808 810 812 815 817 819 821 823 825 828 829 831 833 835 836 838 840 841 843 844 845 847 848 849 850 851 852 853 853 854 855 856 856
775 779 782 785 788 792 795 798 801 804 807 809 811 813 816 818 820 822 824 826 828 830 831 833 835 836 838 839 841 843 844 845 846 847 848 849 850 851 851 852 853 853
770 774 777 781 785 788 791 794 797 800 803 805 808 810 812 814 816 818 820 822 824 826 828 830 832 833 835 836 838 840 841 842 843 844 845 846 847 847 848 849 850 850
765 769 773 777 781 784 788 791 793 796 799 802 804 806 808 811 812 815 817 819 821 823 825 827 828 830 831 833 835 836 838 839 840 841 842 843 844 845 846 846 847 848
761 765 769 774 778 781 784 787 790 793 796 799 801 803 805 807 809 812 813 815 817 819 821 823 825 826 828 829 831 833 835 836 837 838 839 840 841 842 843 843 844 845
758 762 766 770 774 777 780 784 787 790 792 795 797 800 802 804 807 809 810 812 814 816 818 820 821 822 823 825 827 829 831 833 834 835 836 837 838 839 840 840 841 841
754 758 762 766 770 773 777 780 784 786 789 792 794 796 799 801 803 805 807 809 811 812 814 815 816 818 819 820 823 825 827 829 830 831 832 833 835 836 836 837 838 839
750 754 758 762 766 769 773 777 780 783 786 788 790 793 795 798 800 802 803 805 807 809 810 811 812 813 815 816 819 821 823 826 827 828 829 830 831 832 833 834 835 835
747 750 754 758 762 765 769 773 777 779 781 784 787 789 792 794 796 798 800 802 804 805 806 807 809 810 811 813 815 817 819 822 824 825 826 827 828 828 829 830 831 832
743 747 751 754 758 762 766 769 772 775 777 781 784 786 788 790 792 794 796 798 800 801 803 804 805 806 807 809 811 813 816 818 820 822 823 824 824 825 826 827 828 829
739 743 748 751 755 759 762 765 768 771 774 777 779 782 784 786 788 790 792 794 796 798 799 800 802 803 804 806 807 810 813 815 818 819 820 820 821 822 823 824 825 826
735 739 744 748 752 755 758 761 764 766 770 773 776 778 780 782 784 786 788 790 792 794 795 796 798 799 800 802 804 807 810 813 814 816 816 817 818 818 819 820 821 822
731 735 739 744 748 751 754 757 760 763 766 769 772 774 776 778 780 782 784 786 787 789 791 792 794 795 796 798 801 803 806 809 810 812 812 813 814 815 816 817 817 818
728 732 736 740 743 747 750 753 756 760 762 765 768 770 772 774 776 778 780 781 783 784 786 788 790 791 792 794 797 799 802 804 806 808 808 809 810 811 812 813 813 814
725 729 733 736 740 743 747 750 754 756 759 762 764 766 768 770 772 774 775 777 779 780 782 784 785 787 788 790 792 795 797 800 802 803 804 805 806 807 808 809 810 811
721 725 729 732 736 740 744 748 751 754 756 758 760 763 765 767 768 770 771 773 775 776 778 779 781 783 784 785 787 789 792 794 797 798 800 801 802 804 805 805 806 807